Simultaneous Nadir Overpasses (SNOs) Predictions

Prediction of SNOs between GOES-16 and METOP-B Satellite Orbit:

Table of predicted SNOs for the next 14.0 days since TLE Epoch: 11/25/2023
Index Date Time (GOES-16) GOES-16 Lat,Lon METOP-B Lat,Lon Distance(km) Time Diff (sec)
1 11/27/2023 02:29:45 0.05, -75.24 0.02, -75.28 5.67 80
2 11/29/2023 14:25:15 -0.04, -75.34 -0.15, -74.85 55.61 80
3 12/01/2023 02:46:53 0.03, -75.35 -0.86, -79.45 466.36 80
4 12/02/2023 02:23:31 0.03, -75.39 0.21, -74.45 106.54 80
5 12/03/2023 14:45:02 -0.02, -75.47 0.77, -79.01 403.74 80
6 12/04/2023 14:21:41 -0.02, -75.51 -0.37, -74.02 169.74 80
7 12/06/2023 02:43:18 0.02, -75.54 -0.69, -78.61 350.65 80
8 12/07/2023 02:19:58 0.02, -75.58 0.46, -73.62 223.17 80
9 12/08/2023 14:41:27 -0.01, -75.67 0.56, -78.18 285.89 80
